Location: Stara Lesna
(49.1528°N, 20.2911°E)
Time: 10:05:09
(UTC+02:00)

Cosmos 1980 Rocket - Pass Details

Date: 13 July 2020
Orbit: 828 x 851 km, 71.0° (Epoch: 05 August)

Event Time Altitude Azimuth Distance (km) Brightness Sun altitude
Rises 02:12:19 0° 334° (NNW) 3,430 6.0 -16.4°
Reaches altitude 10° 02:15:00 10° 343° (NNW) 2,491 5.4 -16.3°
Maximum altitude 02:20:15 36° 50° (NE) 1,325 3.8 -15.9°
Drops below altitude 10° 02:25:27 10° 116° (ESE) 2,472 4.6 -15.6°
Sets 02:28:06 0° 125° (SE) 3,402 5.2 -15.4°
